Zurück zum Katalog

ATLAS 5 CENTAUR DEB

LostHEO
NORAD 46864·DEBRIS·🇺🇸 United States

Gestartet Oct 17, 2018 von Cape Canaveral Space Force Station

Loading…

Nächste Überflüge (nächste 24 Stunden)

TLE

VeraltetSource: Space-Track

Epoche: Mar 2, 2021, 10:32 UTC

1 46864U 18079DV  21061.43898066 -.00000100  00000-0  00000+0 0  9998
2 46864  11.2158 205.4943 4502946 352.7391   2.2936  1.89013354  2272

Verfolge ATLAS 5 CENTAUR DEB in Echtzeit mit AllMySat

Download on the App Store